Location: Clanezzo
(45.7500°N, 9.6000°E)
Time: 14:01:13
(UTC+00:00)

STARS - Pass Details

Date: 04 July 2022
Orbit: 620 x 637 km, 98.2° (Epoch: 18 August)

Event Time Altitude Azimuth Distance (km) Brightness Sun altitude
Rises 23:36:07 0° 356° (N) 2,932 ? -21.4°
Reaches altitude 10° 23:39:14 10° 332° (NNW) 2,014 ? -21.4°
Maximum altitude 23:41:32 14° 300° (WNW) 1,744 ? -21.4°
Drops below altitude 10° 23:43:49 10° 268° (W) 2,002 ? -21.3°
Enters shadow 23:44:27 - 262° (W) 2,151 ? -21.3°
